EW4799 Weather Reports


Display with metric or nautical units.
time (UTC)temp
F
wind
direction
speed
MPH
gust
MPH
rain 1hr
in
rain 24hr
in
rain mn
in
humidity
%
barometer
mb
20260505080103 56 226 0.0 2.0 0.00 0.00 0.00 82 1013.2
20260505074553 56 0 0.0 4.0 0.00 0.00 0.00 81 1012.9
20260505073054 57 0 1.0 5.0 0.00 0.00 0.00 81 1012.9
20260505071548 57 205 0.0 4.0 0.00 0.00 0.00 81 1012.8
20260505070055 57 108 0.0 4.0 0.00 0.00 0.00 80 1012.7
20260505064550 58 139 0.0 3.0 0.00 0.00 0.00 79 1012.7
20260505063108 58 205 0.0 4.0 0.00 0.00 0.00 78 1012.6
20260505061548 59 198 0.0 5.0 0.00 0.00 0.00 77 1012.4
20260505060056 60 183 1.0 4.0 0.00 0.00 0.00 76 1012.1
20260505054608 60 196 0.0 4.0 0.00 0.00 0.00 74 1012.2
20260505053058 62 212 1.0 6.0 0.00 0.00 0.00 72 1012.1
20260505051550 63 182 1.0 3.0 0.00 0.00 0.00 70 1011.9
20260505041556 67 184 0.0 3.0 0.00 0.00 0.00 63 1011.1
20260505040058 68 205 1.0 7.0 0.00 0.00 0.00 60 1010.8
20260505034551 69 167 0.0 4.0 0.00 0.00 0.00 58 1010.6
20260505033053 71 170 1.0 4.0 0.00 0.00 0.00 55 1010.3
20260505031555 72 184 1.0 5.0 0.00 0.00 0.00 52 1010.1
20260505030051 74 214 1.0 4.0 0.00 0.00 0.00 51 1009.9
20260505024559 76 171 0.0 3.0 0.00 0.00 0.00 50 1009.6
20260505023052 78 181 0.0 3.0 0.00 0.00 0.00 46 1009.5
20260505021554 80 168 1.0 4.0 0.00 0.00 0.00 41 1009.6
20260505020053 83 186 1.0 3.0 0.00 0.00 0.00 38 1009.5
20260505014605 85 216 1.0 3.0 0.00 0.00 0.00 35 1009.6
20260505013053 86 193 1.0 4.0 0.00 0.00 0.00 33 1009.6
20260505011604 86 200 1.0 3.0 0.00 0.00 0.00 32 1009.8
20260505010051 86 208 0.0 5.0 0.00 0.00 0.00 29 1009.9
20260505004555 87 143 1.0 4.0 0.00 0.00 0.00 28 1009.8
20260505003056 87 179 1.0 3.0 0.00 0.00 0.00 28 1009.9
20260505001552 87 199 0.0 4.0 0.00 0.00 0.00 29 1010.0
20260505000109 87 154 1.0 3.0 0.00 0.00 0.00 27 1010.0
20260504234552 88 200 0.0 3.0 0.00 0.00 0.00 27 1010.0
20260504233105 87 185 0.0 3.0 0.00 0.00 0.00 29 1010.0
20260504231551 86 122 1.0 4.0 0.00 0.00 0.00 27 1009.9
20260504230054 86 174 0.0 3.0 0.00 0.00 0.00 28 1009.9
20260504224553 85 153 2.0 4.0 0.00 0.00 0.00 28 1010.3
20260504223122 84 176 1.0 4.0 0.00 0.00 0.00 31 1010.4
20260504221555 84 82 1.0 4.0 0.00 0.00 0.00 31 1010.7
20260504220057 83 168 1.0 3.0 0.00 0.00 0.00 33 1010.8
20260504214552 82 153 2.0 5.0 0.00 0.00 0.00 34 1010.9
20260504213103 82 349 1.0 4.0 0.00 0.00 0.00 34 1010.9
20260504211600 82 165 1.0 4.0 0.00 0.00 0.00 35 1010.9
20260504210058 81 200 1.0 5.0 0.00 0.00 0.00 34 1011.0
20260504204551 80 165 1.0 4.0 0.00 0.00 0.00 34 1011.1
20260504203107 79 207 1.0 5.0 0.00 0.00 0.00 35 1011.1
20260504201559 78 198 0.0 4.0 0.00 0.00 0.00 36 1010.9
20260504200107 77 152 1.0 3.0 0.00 0.00 0.00 37 1010.9
20260504194602 76 0 1.0 4.0 0.00 0.00 0.00 40 1011.1
20260504193056 75 167 1.0 3.0 0.00 0.00 0.00 41 1011.1
20260504191557 74 20 0.0 4.0 0.00 0.00 0.00 43 1011.2
20260504190053 74 141 1.0 3.0 0.00 0.00 0.00 46 1011.3
20260504184556 73 174 0.0 4.0 0.00 0.00 0.00 49 1011.3
20260504183053 71 184 1.0 3.0 0.00 0.00 0.00 51 1011.4
20260504181554 70 50 0.0 4.0 0.00 0.00 0.00 52 1011.4
20260504180056 70 162 0.0 4.0 0.00 0.00 0.00 52 1011.5
20260504174559 69 173 1.0 3.0 0.00 0.00 0.00 52 1011.5
20260504173052 68 174 0.0 4.0 0.00 0.00 0.00 52 1011.4
20260504171553 67 162 0.0 3.0 0.00 0.00 0.00 53 1011.4
20260504150108 56 0 0.0 1.0 0.00 0.00 0.00 81 1010.9
20260504100414 54 0 0.0 0.0 0.00 0.00 0.00 84 1009.8
20260504081554 57 0 0.0 0.0 0.00 0.00 0.00 77 1009.9